Location: Pine Mountain Observatory
(43.7910°N, 120.9377°W)
Time: 07:00:09
(UTC-07:00)

Vanguard 1 Rocket - Pass Details

Date: 29 May 2019
Orbit: 652 x 4224 km, 34.3° (Epoch: 25 June)

Event Time Altitude Azimuth Distance (km) Brightness Sun altitude
Exits shadow 01:31:44 12° 114° (ESE) 2,336 9.3 -24.2°
Drops below altitude 10° 01:32:19 10° 110° (ESE) 2,539 9.6 -24.2°
Sets 01:35:58 0° 96° (E) 3,893 10.7 -24.1°
